Printer-friendly version

IAU Minor Planet Center

Minor Planet Center

MPEC 2006-S83 : 2006 SS134

The following Minor Planet Electronic Circular may be linked-to from your own Web pages, but must not otherwise be redistributed electronically.


Read MPEC 2006-S82 Read MPEC 2006-S84


M.P.E.C. 2006-S83                                Issued 2006 Sept. 29, 00:15 UT

     The Minor Planet Electronic Circulars contain information on unusual
         minor planets and routine data on comets.  They are published
   on behalf of Commission 20 of the International Astronomical Union by the
          Minor Planet Center, Smithsonian Astrophysical Observatory,
                          Cambridge, MA 02138, U.S.A.

                  Supported in part by the Brinson Foundation
                  Supported in part by the TABASGO Foundation
             Prepared using the Tamkin Foundation Computer Network

                              MPC@CFA.HARVARD.EDU
          URL http://cfa-www.harvard.edu/iau/mpc.html  ISSN 1523-6714

                                  2006 SS134

Observations:
     K06SD4S* C2006 09 28.42313 03 27 12.02 -03 57 14.3          15.9 V ES083703
     K06SD4S  C2006 09 28.42954 03 26 55.24 -03 54 53.8          16.6 V ES083703
     K06SD4S  C2006 09 28.43596 03 26 38.47 -03 52 33.4          17.1 V ES083703
     K06SD4S  C2006 09 28.44240 03 26 21.55 -03 50 12.6          16.6 V ES083703
     K06SD4S  C2006 09 28.47977 03 24 44.10 -03 36 33.6          15.8 V ES083703
     K06SD4S  C2006 09 28.48020 03 24 43.02 -03 36 24.5          16.3 V ES083703
     K06SD4S  C2006 09 28.48060 03 24 41.94 -03 36 15.4          16.8 V ES083703
     K06SD4S  C2006 09 28.49527 03 24 03.81 -03 30 54.1          17.1 V ES083703
     K06SD4S  C2006 09 28.49567 03 24 02.77 -03 30 45.6          16.1 V ES083703
     K06SD4S  C2006 09 28.49609 03 24 01.72 -03 30 36.7          15.7 V ES083703
     K06SD4S  C2006 09 28.97196 03 04 44.35 -00 42 17.0          16.1 V ES083595
     K06SD4S  C2006 09 28.97401 03 04 39.35 -00 41 34.3          16.5 V ES083595
     K06SD4S  C2006 09 28.97566 03 04 35.37 -00 41 00.4          16.0 V ES083595

Observer details:
595 Farra d'Isonzo.  Observers G. Lombardi, E. Pettarin.  Measurer E. Pettarin.
    0.40-m f/4.5 reflector + CCD.
703 Catalina Sky Survey.  Observer R. E. Hill.  Measurers E. C. Beshore,
    E. J. Christensen, G. J. Garradd, A. R. Gibbs, A. D. Grauer, R. E. Hill,
    R. A. Kowalski, S. M. Larson, R. H. McNaught.  0.68-m Schmidt + CCD.

Orbital elements:
2006 SS134                                          PHA, Earth MOID = 0.0302 AU
Epoch 2006 Sept. 22.0 TT = JDT 2454000.5                MPC
M  44.02941              (2000.0)            P               Q
n   0.76719770     Peri.  256.44033     -0.08601593     +0.99485966
a   1.1817652      Node     9.14246     -0.73341309     -0.02692650
e   0.4476269      Incl.   19.65254     -0.67431928     -0.09761775
P   1.28           H   21.4           G   0.15           U   8
Residuals in seconds of arc
060928 703  0.3-  0.3+    060928 703  0.6+  0.6-    060928 595  0.1+  0.3-
060928 703  0.1-  0.1+    060928 703  0.0   0.2-    060928 595  0.3-  0.0
060928 703  0.5+  0.3-    060928 703  0.5-  0.3+    060928 595  0.1-  0.2-
060928 703  0.5-  0.8-    060928 703  0.5-  0.1+
060928 703  0.0   0.3-    060928 703  0.1+  0.2-

Ephemeris:
2006 SS134               a,e,i = 1.18, 0.45, 20                  q = 0.6528
Date    TT    R. A. (2000) Decl.     Delta      r     Elong.  Phase     V
2006 09 22    07 34.46   -28 27.2    0.0665   0.982    68.7   107.7    19.5
2006 10 02    01 31.52   +12 17.5    0.0613   1.060   162.7    16.3    16.3
2006 10 12    23 48.65   +22 54.0    0.149    1.135   155.3    21.6    18.6
2006 10 22    23 25.56   +24 20.1    0.249    1.206   144.2    28.9    20.1
2006 11 01    23 21.06   +24 33.4    0.357    1.273   135.9    32.9    21.1
2006 11 11    23 24.53   +24 34.3    0.471    1.336   128.7    35.4    21.8

Timothy B. Spahr             (C) Copyright 2006 MPC           M.P.E.C. 2006-S83

Read MPEC 2006-S82 Read MPEC 2006-S84


Our Web policy. Index to the CBAT/MPC/ICQ pages.


Valid HTML 4.01!